カタログに戻る

STARLINK-2692

運用中通信VLEO
NORAD 48434·PAYLOAD·🇺🇸 United States

打ち上げ May 9, 2021 から Cape Canaveral Space Force Station

Loading…

次のパス (今後24時間)

TLE

最新Source: CelesTrak SupGP

元期: Sep 15, 2026, 02:31 UTC

1 48434C 21040G   26258.10534722  .00050676  00000+0  16294-2 0  2582
2 48434  53.1594 351.2777 0001161  84.7221 268.5259 15.31680316    19

AllMySatでSTARLINK-2692をリアルタイム追跡

Download on the App Store